{"data":{"norad_id":63638,"epoch":"2026-09-20T12:09:34.001856Z","epoch_age_seconds":152261,"freshness":"FRESH","line1":"1 63638U 25083E   26263.50664354  .00011940  00000+0  44265-3 0  9994","line2":"2 63638  43.0025 344.8088 0002005 281.2344  78.8282 15.27583985 79866","mean_motion":15.27583985,"eccentricity":0.0002005,"inclination_deg":43.0025,"raan_deg":344.8088,"arg_perigee_deg":281.2344,"mean_anomaly_deg":78.8282,"bstar":0.00044265,"rev_number":7986,"period_min":94.266502800499,"perigee_km":481.66149812221,"apogee_km":484.41282896179,"semimajor_km":6861.174163542,"source":"CELESTRAK","updated_at":"2026-09-21T09:00:35.051309Z"}}